Miscellaneous Local Product
Issued by NWS Hastings, NE

Home | Current Version | Previous Version | Text Only | Print | Product List | Glossary On
Versions: 1 2 3 4 5 6 7 8 9 10 11 12 13 14 15 16 17 18 19 20 21 22 23 24 25 26 27 28 29 30 31 32 33 34 35 36 37 38 39 40 41 42 43 44 45 46 47 48 49 50
000
AXUS43 KGID 291402
MISGRI

GID CWA HOURLY WEATHER ROUNDUP
NATIONAL WEATHER SERVICE HASTINGS NE
900 AM CDT FRI MAY 29 2015

NOTE: "FAIR" INDICATES FEW OR NO CLOUDS BELOW 12,000 FEET WITH NO
SIGNIFICANT WEATHER AND/OR OBSTRUCTIONS TO VISIBILITY.

...SOUTH CENTRAL NEBRASKA...

CITY           SKY/WX    TMP DP  RH WIND       PRES   REMARKS
GRAND ISLAND   PTSUNNY   64  58  80 NW9       29.96S
HASTINGS       CLOUDY    63  58  83 NW9       29.96S
KEARNEY        MOSUNNY   63  55  77 NW14      29.97S
ORD            MOSUNNY   63  57  81 NW10G18   29.95R
YORK           CLOUDY    63  59  88 W10       29.95S
AURORA         CLOUDY    63  60  92 W7        29.96S
LEXINGTON      SUNNY     63  58  83 NW12      30.00S
HOLDREGE       MOSUNNY   64  55  70 NW13G18   29.98S
HEBRON         CLOUDY    65  60  85 W3        29.95F

...NEBRASKA PANHANDLE...

CITY           SKY/WX    TMP DP  RH WIND       PRES   REMARKS
CHADRON        LGT RAIN  56  53  90 N14       30.13R
ALLIANCE       PTSUNNY   56  52  86 N17       30.11R
SCOTTSBLUFF    CLOUDY    55  51  86 W8        30.15R
SIDNEY         PTSUNNY   56  50  80 NW17      30.14R

...WESTERN AND NORTH CENTRAL NEBRASKA...

CITY           SKY/WX    TMP DP  RH WIND       PRES   REMARKS
VALENTINE      PTSUNNY   64  56  75 NW15G23   30.01R
AINSWORTH      CLOUDY    62  56  80 NW17      30.01R
ONEILL         CLOUDY    63  60  90 NW14      29.95S
BROKEN BOW     MOSUNNY   63  56  78 NW13      29.98S
IMPERIAL       MOSUNNY   60  53  77 NW10      30.07S
NORTH PLATTE   MOSUNNY   63  55  75 N13       30.04S
MCCOOK         SUNNY     63  55  75 NW14      30.03R

...EASTERN NEBRASKA...

CITY           SKY/WX    TMP DP  RH WIND       PRES   REMARKS
NORFOLK        CLOUDY    65  60  84 W8        29.92R
SO SIOUX CITY  CLOUDY    66  62  87 S9        29.90R
TEKAMAH        CLOUDY    68  64  87 S15       29.91S
COLUMBUS       CLOUDY    64  57  77 W6        29.94S
ALBION         CLOUDY    64  57  80 NW10G17   29.94S
OMAHA EPPLEY   CLOUDY    68  64  87 S5        29.93R
OFFUTT AFB     CLOUDY    67  65  93 VRB3      29.92R
MILLARD        CLOUDY    68  64  85 S5        29.93R
LINCOLN        PTSUNNY   67  60  78 SW7       29.94S
NEBRASKA CITY  CLOUDY    66  66  99 SW7       29.94R FOG
BEATRICE       PTSUNNY   66  62  87 SW8       29.94F
FALLS CITY     CLOUDY    68  65  90 S8        29.94R

...NORTHERN KANSAS...

CITY           SKY/WX    TMP DP  RH WIND       PRES   REMARKS
GOODLAND       CLOUDY    58  52  80 N16       30.08R
HILL CITY      MOSUNNY   64  56  75 NW12      30.00F
NORTON         SUNNY     64  52  63 NW14      30.00S
PHILLIPSBURG   SUNNY     63  57  82 W6        29.99S
SMITH CENTER   SUNNY     61  57  88 W5        29.98F
HAYS           PTSUNNY   61  52  72 NW9       30.00R
RUSSELL        CLOUDY    63  58  83 W7        29.97R
CONCORDIA      CLOUDY    64  60  87 W5        29.97R
SALINA         CLOUDY    65  60  84 S5        29.96S
TOPEKA         CLOUDY    69  65  86 S16G24    29.96S



USA.gov is the U.S. government's official web portal to all federal, state and local government web resources and services.